TimeEDT,TemperatureF,Dew PointF,Humidity,Sea Level PressureIn,VisibilityMPH,Wind Direction,Wind SpeedMPH,Gust SpeedMPH,PrecipitationIn,Events,Conditions,WindDirDegrees,DateUTC
12:14 AM,38.3,29.7,71,30.34,10.0,SE,4.6,-,N/A,,Clear,130,2012-10-13 04:14:00
12:34 AM,39.0,29.1,68,30.33,10.0,SE,5.8,-,N/A,,Clear,130,2012-10-13 04:34:00
12:53 AM,39.6,29.3,67,30.33,10.0,SE,4.6,-,N/A,,Clear,130,2012-10-13 04:53:00
1:14 AM,39.2,29.3,68,30.33,10.0,SE,3.5,-,N/A,,Clear,130,2012-10-13 05:14:00
1:54 AM,40.5,30.2,67,30.31,10.0,SE,5.8,-,N/A,,Clear,140,2012-10-13 05:54:00
2:14 AM,40.1,30.2,68,30.31,10.0,SE,6.9,-,N/A,,Clear,130,2012-10-13 06:14:00
2:33 AM,40.1,30.6,69,30.30,10.0,SE,5.8,-,N/A,,Clear,130,2012-10-13 06:33:00
2:54 AM,39.2,30.6,71,30.30,10.0,SSE,3.5,-,N/A,,Clear,150,2012-10-13 06:54:00
3:14 AM,40.1,30.7,69,30.30,10.0,SSE,6.9,-,N/A,,Clear,160,2012-10-13 07:14:00
3:34 AM,39.2,30.6,71,30.30,10.0,SSE,4.6,-,N/A,,Clear,160,2012-10-13 07:34:00
3:54 AM,39.9,31.1,71,30.29,10.0,SE,4.6,-,N/A,,Clear,140,2012-10-13 07:54:00
4:13 AM,40.5,31.6,71,30.28,10.0,SSE,5.8,-,N/A,,Clear,150,2012-10-13 08:13:00
4:34 AM,41.0,32.0,70,30.28,10.0,SSE,4.6,-,N/A,,Clear,160,2012-10-13 08:34:00
4:54 AM,40.1,31.8,72,30.27,10.0,SSE,4.6,-,N/A,,Clear,160,2012-10-13 08:54:00
5:13 AM,40.3,32.0,72,30.26,10.0,SSE,4.6,-,N/A,,Clear,150,2012-10-13 09:13:00
5:34 AM,41.0,32.0,70,30.26,10.0,SE,4.6,-,N/A,,Clear,140,2012-10-13 09:34:00
5:53 AM,41.5,31.8,68,30.24,10.0,SSE,6.9,-,N/A,,Clear,150,2012-10-13 09:53:00
6:14 AM,42.1,31.6,67,30.22,10.0,SSE,8.1,-,N/A,,Clear,150,2012-10-13 10:14:00
6:34 AM,42.4,31.5,65,30.21,10.0,SSE,6.9,-,N/A,,Clear,160,2012-10-13 10:34:00
6:53 AM,42.8,31.6,65,30.22,10.0,SSE,6.9,-,N/A,,Mostly Cloudy,160,2012-10-13 10:53:00
7:14 AM,42.8,31.8,65,30.21,10.0,SSE,8.1,-,N/A,,Mostly Cloudy,150,2012-10-13 11:14:00
7:34 AM,43.0,32.0,65,30.21,10.0,South,6.9,-,N/A,,Light Drizzle,180,2012-10-13 11:34:00
7:53 AM,43.2,32.4,66,30.22,10.0,SSE,5.8,-,N/A,Rain,Light Rain,160,2012-10-13 11:53:00
8:14 AM,42.4,34.3,73,30.21,10.0,SE,4.6,-,N/A,Rain,Rain,140,2012-10-13 12:14:00
8:34 AM,42.6,35.2,75,30.21,7.0,Calm,Calm,-,N/A,Rain,Light Rain,0,2012-10-13 12:34:00
8:53 AM,42.1,36.9,82,30.21,10.0,ENE,4.6,-,N/A,Rain,Rain,60,2012-10-13 12:53:00
9:14 AM,41.9,37.6,85,30.19,10.0,East,4.6,-,N/A,,Overcast,100,2012-10-13 13:14:00
9:54 AM,42.8,37.2,81,30.19,10.0,East,5.8,-,N/A,,Overcast,80,2012-10-13 13:54:00
10:33 AM,42.4,37.9,84,30.18,10.0,ENE,8.1,-,N/A,Rain,Light Rain,60,2012-10-13 14:33:00
10:54 AM,43.2,38.5,84,30.17,10.0,East,8.1,-,N/A,,Overcast,80,2012-10-13 14:54:00
11:34 AM,44.2,39.2,82,30.15,10.0,East,6.9,-,N/A,,Overcast,90,2012-10-13 15:34:00
11:54 AM,44.6,39.6,82,30.13,10.0,East,9.2,-,N/A,,Overcast,100,2012-10-13 15:54:00
12:13 PM,44.8,39.6,82,30.11,10.0,ESE,9.2,-,N/A,,Overcast,110,2012-10-13 16:13:00
12:34 PM,45.5,39.6,80,30.10,10.0,ESE,8.1,-,N/A,,Light Drizzle,110,2012-10-13 16:34:00
12:54 PM,46.8,39.6,76,30.09,10.0,SE,4.6,-,N/A,,Overcast,130,2012-10-13 16:54:00
1:34 PM,50.0,41.0,71,30.06,10.0,SSE,5.8,-,N/A,Rain,Light Rain,150,2012-10-13 17:34:00
1:54 PM,51.1,41.7,70,30.03,10.0,SSE,6.9,-,N/A,Rain,Light Rain,150,2012-10-13 17:54:00
2:13 PM,50.9,43.2,75,30.03,5.0,SSE,6.9,-,N/A,Rain,Heavy Rain,160,2012-10-13 18:13:00
2:34 PM,49.6,45.0,84,30.03,4.0,South,4.6,-,N/A,Rain,Heavy Rain,180,2012-10-13 18:34:00
2:54 PM,49.5,46.0,88,30.01,5.0,SSE,3.5,-,N/A,Rain,Rain,160,2012-10-13 18:54:00
3:14 PM,49.5,46.6,90,30.00,2.0,SSE,5.8,-,N/A,Rain,Rain,160,2012-10-13 19:14:00
3:34 PM,50.0,47.5,91,29.98,5.0,SSE,4.6,-,N/A,Rain,Light Rain,160,2012-10-13 19:34:00
3:54 PM,51.1,49.1,93,29.97,5.0,South,4.6,-,N/A,Rain,Light Rain,170,2012-10-13 19:54:00
4:14 PM,52.2,49.8,92,29.96,5.0,SSE,5.8,-,N/A,,Light Drizzle,160,2012-10-13 20:14:00
4:34 PM,52.7,50.4,92,29.95,5.0,South,9.2,-,N/A,Rain,Light Rain,170,2012-10-13 20:34:00
4:53 PM,53.2,51.1,92,29.94,5.0,South,8.1,-,N/A,Rain,Light Rain,170,2012-10-13 20:53:00
5:14 PM,53.6,51.4,92,29.92,5.0,SSE,5.8,-,N/A,Rain,Light Rain,160,2012-10-13 21:14:00
5:34 PM,54.5,52.5,93,29.92,4.0,South,6.9,-,N/A,,Overcast,170,2012-10-13 21:34:00
5:53 PM,55.4,53.6,94,29.90,4.0,South,4.6,-,N/A,,Overcast,190,2012-10-13 21:53:00
6:14 PM,57.7,55.9,94,29.90,4.0,SW,5.8,-,N/A,,Overcast,220,2012-10-13 22:14:00
6:53 PM,59.9,58.1,94,29.89,5.0,SSW,11.5,-,N/A,,Light Drizzle,200,2012-10-13 22:53:00
7:14 PM,60.3,58.3,93,29.88,5.0,SSW,11.5,-,N/A,Rain,Light Rain,200,2012-10-13 23:14:00
7:34 PM,60.8,59.0,94,29.88,5.0,SSW,10.4,18.4,N/A,,Overcast,210,2012-10-13 23:34:00
8:33 PM,62.2,60.3,93,29.88,4.0,SSW,15.0,19.6,N/A,Rain,Light Rain,200,2012-10-14 00:33:00
8:54 PM,62.8,60.8,93,29.90,4.0,SW,9.2,-,N/A,Rain,Heavy Rain,220,2012-10-14 00:54:00
9:33 PM,63.0,60.8,93,29.90,4.0,WSW,4.6,17.3,N/A,Rain,Light Rain,250,2012-10-14 01:33:00
10:14 PM,63.5,61.2,92,29.91,4.0,WSW,4.6,-,N/A,Rain,Light Rain,240,2012-10-14 02:14:00
10:33 PM,63.5,61.0,91,29.90,4.0,SSW,8.1,-,N/A,,Overcast,210,2012-10-14 02:33:00
10:54 PM,63.7,61.5,93,29.89,4.0,SW,8.1,-,N/A,,Overcast,220,2012-10-14 02:54:00
11:14 PM,64.0,61.7,92,29.89,4.0,SW,8.1,-,N/A,,Overcast,220,2012-10-14 03:14:00